Time,TemperatureF,DewpointF,PressureIn,WindDirection,WindDirectionDegrees,WindSpeedMPH,WindSpeedGustMPH,Humidity,HourlyPrecipIn,Conditions,Clouds,dailyrainin,SoftwareType,DateUTC
2013-05-26 00:00:00,45.3,37.5,30.07,NW,315,0.0,0.0,74,0.00,,,0.00,open2300-1.11,2013-05-25 22:00:00,
2013-05-26 00:10:00,45.1,37.3,30.07,NNW,337,0.0,0.0,74,0.00,,,0.00,open2300-1.11,2013-05-25 22:10:00,
2013-05-26 00:15:00,45.0,37.5,30.07,NNW,337,0.0,0.0,75,0.00,,,0.00,open2300-1.11,2013-05-25 22:15:00,
2013-05-26 00:25:00,45.0,37.5,30.07,NW,315,0.0,0.0,75,0.00,,,0.00,open2300-1.11,2013-05-25 22:25:00,
2013-05-26 00:30:00,44.8,37.7,30.07,ENE,67,1.1,1.1,76,0.00,,,0.00,open2300-1.11,2013-05-25 22:30:00,
2013-05-26 00:35:00,44.8,37.7,30.07,NNE,22,0.0,1.1,76,0.00,,,0.00,open2300-1.11,2013-05-25 22:35:00,
2013-05-26 00:40:00,44.8,37.7,30.07,NNW,337,0.0,0.0,76,0.00,,,0.00,open2300-1.11,2013-05-25 22:40:00,
2013-05-26 00:45:00,44.8,37.7,30.07,NNW,337,0.0,0.0,76,0.00,,,0.00,open2300-1.11,2013-05-25 22:45:00,
2013-05-26 00:50:00,44.8,37.7,30.07,NNW,337,0.0,0.0,76,0.00,,,0.00,open2300-1.11,2013-05-25 22:50:00,
2013-05-26 00:55:00,44.6,37.5,30.06,NNW,337,0.0,0.0,76,0.00,,,0.00,open2300-1.11,2013-05-25 22:55:00,
2013-05-26 01:00:00,44.6,37.5,30.06,NNW,337,0.0,0.0,76,0.00,,,0.00,open2300-1.11,2013-05-25 23:00:00,
2013-05-26 01:05:00,44.4,37.6,30.06,NNW,337,0.0,0.0,77,0.00,,,0.00,open2300-1.11,2013-05-25 23:05:00,
2013-05-26 01:10:00,44.4,37.6,30.06,NNW,337,0.0,0.7,77,0.00,,,0.00,open2300-1.11,2013-05-25 23:10:00,
2013-05-26 01:20:00,44.4,37.6,30.06,West,270,0.0,0.0,77,0.00,,,0.00,open2300-1.11,2013-05-25 23:20:00,
2013-05-26 01:25:00,44.4,37.6,30.06,North,0,0.0,0.0,77,0.00,,,0.00,open2300-1.11,2013-05-25 23:25:00,
2013-05-26 01:30:00,44.2,37.5,30.06,NW,315,0.0,0.0,77,0.00,,,0.00,open2300-1.11,2013-05-25 23:30:00,
2013-05-26 01:35:00,44.1,37.3,30.06,WNW,292,0.0,0.0,77,0.00,,,0.00,open2300-1.11,2013-05-25 23:35:00,
2013-05-26 01:40:00,44.1,37.6,30.06,NW,315,1.3,1.3,78,0.00,,,0.00,open2300-1.11,2013-05-25 23:40:00,
2013-05-26 01:45:00,43.9,37.4,30.05,NW,315,0.0,1.3,78,0.00,,,0.00,open2300-1.11,2013-05-25 23:45:00,
2013-05-26 01:50:00,43.9,37.4,30.05,WNW,292,0.0,0.0,78,0.00,,,0.00,open2300-1.11,2013-05-25 23:50:00,
2013-05-26 01:55:00,43.9,37.4,30.05,NW,315,1.3,1.3,78,0.00,,,0.00,open2300-1.11,2013-05-25 23:55:00,
2013-05-26 02:00:00,43.9,37.4,30.05,WNW,292,0.0,1.3,78,0.00,,,0.00,open2300-1.11,2013-05-26 00:00:00,
2013-05-26 02:05:00,43.7,37.3,30.05,NW,315,0.0,0.0,78,0.00,,,0.00,open2300-1.11,2013-05-26 00:05:00,
2013-05-26 02:10:00,43.7,37.6,30.05,WNW,292,0.0,0.0,79,0.00,,,0.00,open2300-1.11,2013-05-26 00:10:00,
2013-05-26 02:15:00,43.7,37.6,30.05,WNW,292,0.0,0.0,79,0.00,,,0.00,open2300-1.11,2013-05-26 00:15:00,
2013-05-26 02:21:00,43.7,37.6,30.05,WNW,292,0.0,0.0,79,0.00,,,0.00,open2300-1.11,2013-05-26 00:21:00,
2013-05-26 02:30:00,43.5,37.4,30.04,WNW,292,0.0,0.0,79,0.00,,,0.00,open2300-1.11,2013-05-26 00:30:00,
2013-05-26 02:40:00,43.5,37.8,30.04,NNW,337,0.0,0.0,80,0.00,,,0.00,open2300-1.11,2013-05-26 00:40:00,
2013-05-26 02:45:00,43.5,37.8,30.04,NNW,337,0.0,0.0,80,0.00,,,0.00,open2300-1.11,2013-05-26 00:45:00,
2013-05-26 02:50:00,43.3,37.6,30.04,WNW,292,1.8,1.8,80,0.00,,,0.00,open2300-1.11,2013-05-26 00:50:00,
2013-05-26 02:55:00,43.3,37.6,30.04,WNW,292,0.0,1.8,80,0.00,,,0.00,open2300-1.11,2013-05-26 00:55:00,
2013-05-26 03:00:00,43.3,37.6,30.04,NW,315,0.0,2.5,80,0.00,,,0.00,open2300-1.11,2013-05-26 01:00:00,
2013-05-26 03:05:00,43.3,37.9,30.04,West,270,0.0,0.0,81,0.00,,,0.00,open2300-1.11,2013-05-26 01:05:00,
2013-05-26 03:10:00,43.3,37.9,30.03,NW,315,0.7,0.9,81,0.00,,,0.00,open2300-1.11,2013-05-26 01:10:00,
2013-05-26 03:15:00,43.3,37.9,30.03,WNW,292,0.0,0.7,81,0.00,,,0.00,open2300-1.11,2013-05-26 01:15:00,
2013-05-26 03:25:00,43.3,37.9,30.04,WNW,292,1.6,1.6,81,0.00,,,0.00,open2300-1.11,2013-05-26 01:25:00,
2013-05-26 03:30:00,43.3,37.9,30.03,NW,315,1.3,1.6,81,0.00,,,0.00,open2300-1.11,2013-05-26 01:30:00,
2013-05-26 03:40:00,43.3,37.9,30.03,NW,315,0.0,0.0,81,0.00,,,0.00,open2300-1.11,2013-05-26 01:40:00,
2013-05-26 03:50:00,43.3,38.2,30.03,NW,315,0.0,1.6,82,0.00,,,0.00,open2300-1.11,2013-05-26 01:50:00,
2013-05-26 03:55:00,43.2,38.0,30.03,WNW,292,0.0,0.0,82,0.00,,,0.00,open2300-1.11,2013-05-26 01:55:00,
2013-05-26 04:00:00,43.3,38.2,30.03,NW,315,0.0,0.0,82,0.00,,,0.00,open2300-1.11,2013-05-26 02:00:00,
2013-05-26 04:11:00,43.2,38.0,30.03,WNW,292,0.0,0.0,82,0.00,,,0.00,open2300-1.11,2013-05-26 02:11:00,
2013-05-26 04:17:00,43.0,37.8,30.03,WNW,292,0.9,0.9,82,0.00,,,0.00,open2300-1.11,2013-05-26 02:17:00,
2013-05-26 04:25:00,43.0,38.1,30.03,NW,315,0.0,1.3,83,0.00,,,0.00,open2300-1.11,2013-05-26 02:25:00,
2013-05-26 04:30:00,43.2,38.3,30.03,WNW,292,0.0,0.7,83,0.00,,,0.00,open2300-1.11,2013-05-26 02:30:00,
2013-05-26 04:35:00,43.0,38.1,30.02,NW,315,0.0,0.0,83,0.00,,,0.00,open2300-1.11,2013-05-26 02:35:00,
2013-05-26 04:45:00,43.2,38.3,30.02,WNW,292,0.7,1.1,83,0.00,,,0.00,open2300-1.11,2013-05-26 02:45:00,
2013-05-26 04:50:00,43.2,38.3,30.02,WNW,292,1.6,1.6,83,0.00,,,0.00,open2300-1.11,2013-05-26 02:50:00,
2013-05-26 04:55:00,43.3,38.5,30.02,NW,315,0.0,1.6,83,0.00,,,0.00,open2300-1.11,2013-05-26 02:55:00,
2013-05-26 05:00:00,43.3,38.5,30.02,WNW,292,0.9,0.9,83,0.00,,,0.00,open2300-1.11,2013-05-26 03:00:00,
2013-05-26 05:05:00,43.3,38.5,30.03,NW,315,0.0,0.9,83,0.00,,,0.00,open2300-1.11,2013-05-26 03:05:00,
2013-05-26 05:10:00,43.3,38.5,30.03,WNW,292,0.0,0.9,83,0.00,,,0.00,open2300-1.11,2013-05-26 03:10:00,
2013-05-26 05:20:00,43.3,38.5,30.03,NW,315,0.0,1.8,83,0.00,,,0.00,open2300-1.11,2013-05-26 03:20:00,
2013-05-26 05:25:00,43.3,38.5,30.03,NW,315,0.0,1.6,83,0.00,,,0.00,open2300-1.11,2013-05-26 03:25:00,
2013-05-26 05:30:00,43.5,39.0,30.03,NW,315,0.0,0.0,84,0.00,,,0.00,open2300-1.11,2013-05-26 03:30:00,
2013-05-26 05:40:00,43.5,39.0,30.03,NW,315,2.0,2.0,84,0.00,,,0.00,open2300-1.11,2013-05-26 03:40:00,
2013-05-26 05:50:00,43.5,39.0,30.03,NW,315,0.0,2.9,84,0.00,,,0.00,open2300-1.11,2013-05-26 03:50:00,
2013-05-26 05:55:00,43.3,38.8,30.03,NW,315,2.2,3.6,84,0.00,,,0.00,open2300-1.11,2013-05-26 03:55:00,
2013-05-26 06:00:00,43.3,38.8,30.03,WNW,292,0.0,2.2,84,0.00,,,0.00,open2300-1.11,2013-05-26 04:00:00,
2013-05-26 06:07:00,43.3,38.8,30.03,WNW,292,0.0,1.6,84,0.00,,,0.00,open2300-1.11,2013-05-26 04:07:00,
2013-05-26 06:15:00,43.3,38.8,30.03,WSW,247,1.1,1.1,84,0.00,,,0.00,open2300-1.11,2013-05-26 04:15:00,
2013-05-26 06:20:00,43.3,38.8,30.03,WSW,247,0.0,1.1,84,0.00,,,0.00,open2300-1.11,2013-05-26 04:20:00,
2013-05-26 06:30:00,43.3,38.8,30.02,WNW,292,0.0,0.0,84,0.00,,,0.00,open2300-1.11,2013-05-26 04:30:00,
2013-05-26 06:35:00,43.3,38.8,30.01,SSW,202,0.0,0.0,84,0.00,,,0.00,open2300-1.11,2013-05-26 04:35:00,
2013-05-26 06:40:00,43.3,38.8,30.01,South,180,0.0,0.0,84,0.00,,,0.00,open2300-1.11,2013-05-26 04:40:00,
2013-05-26 06:50:00,43.5,39.3,30.01,ESE,112,0.0,1.3,85,0.00,,,0.00,open2300-1.11,2013-05-26 04:50:00,
2013-05-26 06:55:00,43.7,39.5,30.01,ESE,112,0.0,0.0,85,0.00,,,0.00,open2300-1.11,2013-05-26 04:55:00,
2013-05-26 07:00:00,43.9,39.7,30.01,ESE,112,0.0,0.0,85,0.00,,,0.00,open2300-1.11,2013-05-26 05:00:00,
2013-05-26 07:05:00,44.1,39.8,30.01,ESE,112,0.0,0.0,85,0.00,,,0.00,open2300-1.11,2013-05-26 05:05:00,
2013-05-26 07:10:00,44.2,40.0,30.01,ESE,112,0.0,0.0,85,0.00,,,0.00,open2300-1.11,2013-05-26 05:10:00,
2013-05-26 07:15:00,44.2,40.0,30.01,ESE,112,0.0,0.0,85,0.00,,,0.00,open2300-1.11,2013-05-26 05:15:00,
2013-05-26 07:20:00,44.6,40.4,30.01,NW,315,0.0,0.7,85,0.00,,,0.00,open2300-1.11,2013-05-26 05:20:00,
2013-05-26 07:25:00,44.8,40.5,30.01,NW,315,0.0,0.0,85,0.00,,,0.00,open2300-1.11,2013-05-26 05:25:00,
2013-05-26 07:35:00,45.1,40.9,30.01,West,270,3.8,3.8,85,0.00,,,0.00,open2300-1.11,2013-05-26 05:35:00,
2013-05-26 07:40:00,45.1,40.9,30.01,WNW,292,0.0,3.8,85,0.00,,,0.00,open2300-1.11,2013-05-26 05:40:00,
2013-05-26 07:45:00,45.5,41.3,30.01,WNW,292,0.0,0.0,85,0.00,,,0.00,open2300-1.11,2013-05-26 05:45:00,
2013-05-26 07:50:00,45.7,41.1,30.02,WNW,292,0.0,0.0,84,0.00,,,0.00,open2300-1.11,2013-05-26 05:50:00,
2013-05-26 08:00:00,46.0,41.5,30.01,WNW,292,1.1,1.6,84,0.00,,,0.00,open2300-1.11,2013-05-26 06:00:00,
2013-05-26 08:05:00,46.0,41.5,30.02,NNE,22,0.0,1.1,84,0.00,,,0.00,open2300-1.11,2013-05-26 06:05:00,
2013-05-26 08:10:00,46.2,41.7,30.01,NW,315,1.3,1.3,84,0.00,,,0.00,open2300-1.11,2013-05-26 06:10:00,
2013-05-26 08:15:00,46.6,42.0,30.01,ENE,67,0.0,1.6,84,0.00,,,0.00,open2300-1.11,2013-05-26 06:15:00,
2013-05-26 08:20:00,46.8,41.9,30.01,West,270,0.0,0.0,83,0.00,,,0.00,open2300-1.11,2013-05-26 06:20:00,
2013-05-26 08:25:00,46.8,41.9,30.01,NW,315,0.0,2.9,83,0.00,,,0.00,open2300-1.11,2013-05-26 06:25:00,
2013-05-26 08:30:00,46.9,42.0,30.02,West,270,0.7,0.7,83,0.00,,,0.00,open2300-1.11,2013-05-26 06:30:00,
2013-05-26 08:40:00,47.3,42.4,30.02,NW,315,1.6,2.5,83,0.00,,,0.00,open2300-1.11,2013-05-26 06:40:00,
2013-05-26 08:50:00,47.8,42.6,30.01,NW,315,2.2,5.1,82,0.00,,,0.00,open2300-1.11,2013-05-26 06:50:00,
2013-05-26 08:55:00,48.0,42.7,30.01,NW,315,0.0,2.2,82,0.00,,,0.00,open2300-1.11,2013-05-26 06:55:00,
2013-05-26 09:05:00,48.7,43.1,30.01,NW,315,2.2,4.2,81,0.00,,,0.00,open2300-1.11,2013-05-26 07:05:00,
2013-05-26 09:10:00,48.7,43.1,30.01,WNW,292,2.5,2.5,81,0.00,,,0.00,open2300-1.11,2013-05-26 07:10:00,
2013-05-26 09:20:00,49.6,44.0,30.01,NNW,337,0.7,4.5,81,0.00,,,0.00,open2300-1.11,2013-05-26 07:20:00,
2013-05-26 09:25:00,49.8,43.9,30.01,NW,315,4.5,4.5,80,0.00,,,0.00,open2300-1.11,2013-05-26 07:25:00,
2013-05-26 09:30:00,49.8,43.9,30.01,NW,315,3.8,4.5,80,0.00,,,0.00,open2300-1.11,2013-05-26 07:30:00,
2013-05-26 09:35:00,50.4,44.1,30.01,WNW,292,1.6,4.2,79,0.00,,,0.00,open2300-1.11,2013-05-26 07:35:00,
2013-05-26 09:40:00,50.7,44.4,30.01,North,0,0.0,2.9,79,0.00,,,0.00,open2300-1.11,2013-05-26 07:40:00,
2013-05-26 09:50:00,52.0,45.3,30.01,NW,315,4.0,4.0,78,0.00,,,0.00,open2300-1.11,2013-05-26 07:50:00,
2013-05-26 09:55:00,52.3,45.7,30.01,NNW,337,5.8,5.8,78,0.00,,,0.00,open2300-1.11,2013-05-26 07:55:00,
2013-05-26 10:00:00,52.9,45.5,30.02,NNE,22,0.0,5.8,76,0.00,,,0.00,open2300-1.11,2013-05-26 08:00:00,
2013-05-26 10:10:00,53.8,46.0,30.01,WNW,292,2.5,2.5,75,0.00,,,0.00,open2300-1.11,2013-05-26 08:10:00,
2013-05-26 10:15:00,54.1,46.4,30.02,ENE,67,2.2,2.5,75,0.00,,,0.00,open2300-1.11,2013-05-26 08:15:00,
2013-05-26 10:25:00,55.4,46.5,30.02,NW,315,2.2,2.2,72,0.00,,,0.00,open2300-1.11,2013-05-26 08:25:00,
2013-05-26 10:35:00,55.9,46.3,30.02,NW,315,0.0,5.1,70,0.00,,,0.00,open2300-1.11,2013-05-26 08:35:00,
2013-05-26 10:40:00,55.9,46.3,30.02,NNW,337,0.0,1.3,70,0.00,,,0.00,open2300-1.11,2013-05-26 08:40:00,
2013-05-26 10:45:00,55.6,46.0,30.02,North,0,3.6,3.6,70,0.00,,,0.00,open2300-1.11,2013-05-26 08:45:00,
2013-05-26 10:55:00,55.4,45.5,30.02,NNW,337,2.0,2.5,69,0.00,,,0.00,open2300-1.11,2013-05-26 08:55:00,
2013-05-26 11:05:00,55.6,45.6,30.02,WNW,292,0.0,2.2,69,0.00,,,0.00,open2300-1.11,2013-05-26 09:05:00,
2013-05-26 11:10:00,55.9,45.9,30.01,WNW,292,2.2,2.2,69,0.00,,,0.00,open2300-1.11,2013-05-26 09:10:00,
2013-05-26 11:20:00,56.5,45.6,30.02,NW,315,2.9,5.1,67,0.00,,,0.00,open2300-1.11,2013-05-26 09:20:00,
2013-05-26 11:25:00,56.5,45.6,30.02,WNW,292,0.0,7.6,67,0.00,,,0.00,open2300-1.11,2013-05-26 09:25:00,
2013-05-26 11:35:00,56.5,44.4,30.02,WNW,292,8.1,8.1,64,0.00,,,0.00,open2300-1.11,2013-05-26 09:35:00,
2013-05-26 11:40:00,56.5,44.0,30.02,NNW,337,1.1,8.1,63,0.00,,,0.00,open2300-1.11,2013-05-26 09:40:00,
2013-05-26 11:45:00,56.3,43.4,30.02,NW,315,1.6,1.6,62,0.00,,,0.00,open2300-1.11,2013-05-26 09:45:00,
2013-05-26 11:55:00,56.8,43.6,30.02,NW,315,2.5,5.1,61,0.00,,,0.00,open2300-1.11,2013-05-26 09:55:00,
2013-05-26 12:05:00,57.2,43.5,30.02,WNW,292,5.6,5.6,60,0.00,,,0.00,open2300-1.11,2013-05-26 10:05:00,
2013-05-26 12:10:00,57.4,43.7,30.02,NW,315,3.4,5.6,60,0.00,,,0.00,open2300-1.11,2013-05-26 10:10:00,
2013-05-26 12:20:00,57.6,43.4,30.02,NW,315,5.1,5.1,59,0.00,,,0.00,open2300-1.11,2013-05-26 10:20:00,
2013-05-26 12:25:00,57.7,43.1,30.02,WNW,292,1.6,5.1,58,0.00,,,0.00,open2300-1.11,2013-05-26 10:25:00,
2013-05-26 12:35:00,58.1,43.4,30.02,NW,315,2.2,2.9,58,0.00,,,0.00,open2300-1.11,2013-05-26 10:35:00,
2013-05-26 12:40:00,58.3,43.1,30.01,SE,135,0.0,2.2,57,0.00,,,0.00,open2300-1.11,2013-05-26 10:40:00,
2013-05-26 12:45:00,58.6,43.4,30.02,NW,315,0.9,2.2,57,0.00,,,0.00,open2300-1.11,2013-05-26 10:45:00,
2013-05-26 12:55:00,58.8,43.1,30.02,WNW,292,1.6,2.7,56,0.00,,,0.00,open2300-1.11,2013-05-26 10:55:00,
2013-05-26 13:05:00,59.4,42.7,30.02,NE,45,2.5,5.8,54,0.00,,,0.00,open2300-1.11,2013-05-26 11:05:00,
2013-05-26 13:10:00,59.5,42.3,30.02,NW,315,2.0,4.5,53,0.00,,,0.00,open2300-1.11,2013-05-26 11:10:00,
2013-05-26 13:15:00,59.5,41.9,30.01,WSW,247,2.7,2.7,52,0.00,,,0.00,open2300-1.11,2013-05-26 11:15:00,
2013-05-26 13:20:00,59.2,41.6,30.01,NW,315,2.9,2.9,52,0.00,,,0.00,open2300-1.11,2013-05-26 11:20:00,
2013-05-26 13:25:00,59.2,41.1,30.01,NW,315,2.5,4.2,51,0.00,,,0.00,open2300-1.11,2013-05-26 11:25:00,
2013-05-26 13:30:00,59.2,41.6,30.01,NW,315,0.9,2.5,52,0.00,,,0.00,open2300-1.11,2013-05-26 11:30:00,
2013-05-26 13:35:00,59.4,41.7,30.01,West,270,0.0,5.6,52,0.00,,,0.00,open2300-1.11,2013-05-26 11:35:00,
2013-05-26 13:41:00,59.5,41.4,30.01,NNE,22,0.0,1.6,51,0.00,,,0.00,open2300-1.11,2013-05-26 11:41:00,
2013-05-26 13:50:00,60.4,42.2,30.01,WNW,292,4.7,4.7,51,0.00,,,0.00,open2300-1.11,2013-05-26 11:50:00,
2013-05-26 13:55:00,60.4,42.2,30.01,NW,315,0.0,4.7,51,0.00,,,0.00,open2300-1.11,2013-05-26 11:55:00,
2013-05-26 14:00:00,60.6,42.4,30.01,WNW,292,3.1,3.1,51,0.00,,,0.00,open2300-1.11,2013-05-26 12:00:00,
2013-05-26 14:05:00,60.8,42.6,30.01,NW,315,0.0,3.1,51,0.00,,,0.00,open2300-1.11,2013-05-26 12:05:00,
2013-05-26 14:10:00,60.8,42.6,30.01,WNW,292,1.8,1.8,51,0.00,,,0.00,open2300-1.11,2013-05-26 12:10:00,
2013-05-26 14:15:00,60.6,42.4,30.00,WNW,292,0.0,1.8,51,0.00,,,0.00,open2300-1.11,2013-05-26 12:15:00,
2013-05-26 14:20:00,60.6,42.9,30.01,WNW,292,2.5,2.5,52,0.00,,,0.00,open2300-1.11,2013-05-26 12:20:00,
2013-05-26 14:25:00,61.0,43.2,30.00,NW,315,4.7,4.7,52,0.00,,,0.00,open2300-1.11,2013-05-26 12:25:00,
2013-05-26 14:35:00,61.0,43.2,30.00,WSW,247,0.0,0.7,52,0.00,,,0.00,open2300-1.11,2013-05-26 12:35:00,
2013-05-26 14:40:00,61.0,43.7,30.00,NNW,337,0.0,0.0,53,0.00,,,0.00,open2300-1.11,2013-05-26 12:40:00,
2013-05-26 14:50:00,61.2,43.9,30.00,WNW,292,3.1,3.1,53,0.00,,,0.00,open2300-1.11,2013-05-26 12:50:00,
2013-05-26 14:55:00,61.3,44.0,30.00,NW,315,4.9,4.9,53,0.00,,,0.00,open2300-1.11,2013-05-26 12:55:00,
2013-05-26 15:00:00,61.5,44.2,30.00,West,270,2.7,4.9,53,0.00,,,0.00,open2300-1.11,2013-05-26 13:00:00,
2013-05-26 15:07:00,61.5,44.2,30.00,NNW,337,3.6,3.6,53,0.00,,,0.00,open2300-1.11,2013-05-26 13:07:00,
2013-05-26 15:15:00,61.5,44.2,30.00,NW,315,3.4,10.3,53,0.00,,,0.00,open2300-1.11,2013-05-26 13:15:00,
2013-05-26 15:20:00,61.3,44.0,30.00,WNW,292,1.3,3.4,53,0.00,,,0.00,open2300-1.11,2013-05-26 13:20:00,
2013-05-26 15:25:00,61.2,44.3,30.00,West,270,3.6,4.9,54,0.00,,,0.00,open2300-1.11,2013-05-26 13:25:00,
2013-05-26 15:30:00,61.2,44.3,30.00,NW,315,2.5,3.6,54,0.00,,,0.00,open2300-1.11,2013-05-26 13:30:00,
2013-05-26 15:35:00,61.2,44.3,30.00,NW,315,0.0,3.4,54,0.00,,,0.00,open2300-1.11,2013-05-26 13:35:00,
2013-05-26 15:40:00,61.2,44.3,30.00,WNW,292,7.6,7.6,54,0.00,,,0.00,open2300-1.11,2013-05-26 13:40:00,
2013-05-26 15:45:00,61.2,44.8,30.00,NW,315,0.0,7.6,55,0.00,,,0.00,open2300-1.11,2013-05-26 13:45:00,
2013-05-26 15:50:00,61.3,45.5,30.00,WNW,292,2.9,5.4,56,0.00,,,0.00,open2300-1.11,2013-05-26 13:50:00,
2013-05-26 16:00:00,61.9,45.5,30.00,West,270,1.6,2.9,55,0.00,,,0.00,open2300-1.11,2013-05-26 14:00:00,
2013-05-26 16:05:00,62.2,45.3,30.00,NW,315,2.2,2.7,54,0.00,,,0.00,open2300-1.11,2013-05-26 14:05:00,
2013-05-26 16:10:00,62.4,45.5,29.99,WNW,292,0.0,2.2,54,0.00,,,0.00,open2300-1.11,2013-05-26 14:10:00,
2013-05-26 16:15:00,62.4,45.5,29.99,North,0,0.0,11.0,54,0.00,,,0.00,open2300-1.11,2013-05-26 14:15:00,
2013-05-26 16:20:00,62.4,45.5,29.99,NW,315,0.0,6.7,54,0.00,,,0.00,open2300-1.11,2013-05-26 14:20:00,
2013-05-26 16:25:00,62.4,45.5,29.99,West,270,2.2,3.1,54,0.00,,,0.00,open2300-1.11,2013-05-26 14:25:00,
2013-05-26 16:31:00,62.6,45.6,29.99,NW,315,0.0,2.9,54,0.00,,,0.00,open2300-1.11,2013-05-26 14:31:00,
2013-05-26 16:40:00,63.1,46.1,29.99,NW,315,2.7,2.7,54,0.00,,,0.00,open2300-1.11,2013-05-26 14:40:00,
2013-05-26 16:45:00,63.7,47.1,29.99,NW,315,0.0,2.9,55,0.00,,,0.00,open2300-1.11,2013-05-26 14:45:00,
2013-05-26 16:55:00,65.1,47.5,29.99,North,0,1.6,1.6,53,0.00,,,0.00,open2300-1.11,2013-05-26 14:55:00,
2013-05-26 17:00:00,64.6,47.0,29.99,NNW,337,0.0,2.5,53,0.00,,,0.00,open2300-1.11,2013-05-26 15:00:00,
2013-05-26 17:10:00,63.5,46.5,29.99,NW,315,0.7,6.3,54,0.00,,,0.00,open2300-1.11,2013-05-26 15:10:00,
2013-05-26 17:15:00,63.1,46.6,29.98,NW,315,3.1,3.1,55,0.00,,,0.00,open2300-1.11,2013-05-26 15:15:00,
2013-05-26 17:25:00,62.4,45.5,29.98,NNW,337,2.9,2.9,54,0.00,,,0.00,open2300-1.11,2013-05-26 15:25:00,
2013-05-26 17:30:00,61.9,45.5,29.98,West,270,0.7,2.9,55,0.00,,,0.00,open2300-1.11,2013-05-26 15:30:00,
2013-05-26 17:40:00,62.1,45.6,29.98,West,270,0.9,0.9,55,0.00,,,0.00,open2300-1.11,2013-05-26 15:40:00,
2013-05-26 17:45:00,62.2,45.8,29.98,NW,315,6.0,6.0,55,0.00,,,0.00,open2300-1.11,2013-05-26 15:45:00,
2013-05-26 17:55:00,63.1,46.1,29.98,NW,315,2.5,3.8,54,0.00,,,0.00,open2300-1.11,2013-05-26 15:55:00,
2013-05-26 18:00:00,63.0,46.0,29.97,NW,315,2.5,10.3,54,0.00,,,0.00,open2300-1.11,2013-05-26 16:00:00,
2013-05-26 18:10:00,63.0,46.0,29.97,West,270,4.2,4.2,54,0.00,,,0.00,open2300-1.11,2013-05-26 16:10:00,
2013-05-26 18:15:00,63.3,45.8,29.97,NW,315,0.0,4.2,53,0.00,,,0.00,open2300-1.11,2013-05-26 16:15:00,
2013-05-26 18:20:00,63.3,45.8,29.97,WNW,292,1.3,2.2,53,0.00,,,0.00,open2300-1.11,2013-05-26 16:20:00,
2013-05-26 18:25:00,63.1,45.2,29.97,NW,315,0.0,2.2,52,0.00,,,0.00,open2300-1.11,2013-05-26 16:25:00,
2013-05-26 18:30:00,63.3,45.2,29.97,SW,225,4.0,4.0,52,0.00,,,0.00,open2300-1.11,2013-05-26 16:30:00,
2013-05-26 18:40:00,62.8,45.3,29.97,NW,315,1.6,2.5,53,0.00,,,0.00,open2300-1.11,2013-05-26 16:40:00,
2013-05-26 18:45:00,63.3,45.8,29.97,NNW,337,2.2,2.2,53,0.00,,,0.00,open2300-1.11,2013-05-26 16:45:00,
2013-05-26 18:50:00,64.2,46.1,29.97,NW,315,6.0,6.0,52,0.00,,,0.00,open2300-1.11,2013-05-26 16:50:00,
2013-05-26 18:55:00,64.2,45.6,29.96,NNW,337,1.3,6.0,51,0.00,,,0.00,open2300-1.11,2013-05-26 16:55:00,
2013-05-26 19:00:00,64.2,45.5,29.97,WNW,292,2.0,4.5,50,0.00,,,0.00,open2300-1.11,2013-05-26 17:00:00,
2013-05-26 19:05:00,64.0,45.0,29.97,NW,315,5.8,5.8,50,0.00,,,0.00,open2300-1.11,2013-05-26 17:05:00,
2013-05-26 19:17:00,62.4,44.0,29.96,NNW,337,2.7,3.1,51,0.00,,,0.00,open2300-1.11,2013-05-26 17:17:00,
2013-05-26 19:25:00,61.7,43.4,29.96,NW,315,4.0,4.0,51,0.00,,,0.00,open2300-1.11,2013-05-26 17:25:00,
2013-05-26 19:30:00,61.5,43.7,29.96,NNW,337,5.4,5.4,52,0.00,,,0.00,open2300-1.11,2013-05-26 17:30:00,
2013-05-26 19:40:00,61.3,43.5,29.96,West,270,2.9,5.4,52,0.00,,,0.00,open2300-1.11,2013-05-26 17:40:00,
2013-05-26 19:45:00,61.2,43.4,29.97,West,270,2.2,2.9,52,0.00,,,0.00,open2300-1.11,2013-05-26 17:45:00,
2013-05-26 19:55:00,60.6,42.4,29.97,WNW,292,0.0,4.7,51,0.00,,,0.00,open2300-1.11,2013-05-26 17:55:00,
2013-05-26 20:05:00,60.4,42.7,29.97,WNW,292,3.8,3.8,52,0.00,,,0.00,open2300-1.11,2013-05-26 18:05:00,
2013-05-26 20:10:00,60.3,42.5,29.97,NW,315,0.0,3.8,52,0.00,,,0.00,open2300-1.11,2013-05-26 18:10:00,
2013-05-26 20:15:00,59.9,42.7,29.97,NW,315,2.0,2.0,53,0.00,,,0.00,open2300-1.11,2013-05-26 18:15:00,
2013-05-26 20:20:00,59.5,42.3,29.97,WNW,292,1.8,2.5,53,0.00,,,0.00,open2300-1.11,2013-05-26 18:20:00,
2013-05-26 20:25:00,59.0,42.3,29.97,West,270,0.9,1.8,54,0.00,,,0.00,open2300-1.11,2013-05-26 18:25:00,
2013-05-26 20:30:00,58.8,42.6,29.97,NW,315,0.0,0.9,55,0.00,,,0.00,open2300-1.11,2013-05-26 18:30:00,
2013-05-26 20:40:00,57.9,41.8,29.97,West,270,0.0,0.0,55,0.00,,,0.00,open2300-1.11,2013-05-26 18:40:00,
2013-05-26 20:45:00,57.6,42.0,29.97,NW,315,2.0,2.0,56,0.00,,,0.00,open2300-1.11,2013-05-26 18:45:00,
2013-05-26 20:50:00,57.2,41.7,29.96,NW,315,0.0,2.0,56,0.00,,,0.00,open2300-1.11,2013-05-26 18:50:00,
2013-05-26 20:55:00,57.0,41.5,29.96,NW,315,1.8,1.8,56,0.00,,,0.00,open2300-1.11,2013-05-26 18:55:00,
2013-05-26 21:05:00,56.3,41.2,29.96,NW,315,0.0,0.0,57,0.00,,,0.00,open2300-1.11,2013-05-26 19:05:00,
2013-05-26 21:15:00,55.8,41.1,29.96,NW,315,0.0,0.0,58,0.00,,,0.00,open2300-1.11,2013-05-26 19:15:00,
2013-05-26 21:20:00,55.6,41.0,29.96,NW,315,0.7,0.7,58,0.00,,,0.00,open2300-1.11,2013-05-26 19:20:00,
2013-05-26 21:25:00,55.2,41.1,29.96,NW,315,1.8,1.8,59,0.00,,,0.00,open2300-1.11,2013-05-26 19:25:00,
2013-05-26 21:35:00,54.7,40.6,29.96,NW,315,1.3,1.3,59,0.00,,,0.00,open2300-1.11,2013-05-26 19:35:00,
2013-05-26 21:40:00,54.3,40.3,29.96,WNW,292,0.0,1.3,59,0.00,,,0.00,open2300-1.11,2013-05-26 19:40:00,
2013-05-26 21:45:00,54.1,40.1,29.96,WNW,292,0.0,0.0,59,0.00,,,0.00,open2300-1.11,2013-05-26 19:45:00,
2013-05-26 21:55:00,53.8,39.8,29.97,NW,315,0.0,0.0,59,0.00,,,0.00,open2300-1.11,2013-05-26 19:55:00,
2013-05-26 22:00:00,53.2,39.3,29.97,NW,315,0.0,0.0,59,0.00,,,0.00,open2300-1.11,2013-05-26 20:00:00,
2013-05-26 22:05:00,52.9,39.4,29.97,NW,315,0.0,0.0,60,0.00,,,0.00,open2300-1.11,2013-05-26 20:05:00,
2013-05-26 22:10:00,52.5,39.0,29.97,NW,315,0.0,0.0,60,0.00,,,0.00,open2300-1.11,2013-05-26 20:10:00,
2013-05-26 22:15:00,52.0,38.9,29.97,NW,315,0.0,0.0,61,0.00,,,0.00,open2300-1.11,2013-05-26 20:15:00,
2013-05-26 22:25:00,51.4,38.8,29.97,North,0,0.0,0.0,62,0.00,,,0.00,open2300-1.11,2013-05-26 20:25:00,
2013-05-26 22:30:00,51.3,38.6,29.97,North,0,0.0,0.0,62,0.00,,,0.00,open2300-1.11,2013-05-26 20:30:00,
2013-05-26 22:40:00,50.9,38.3,29.96,North,0,0.0,0.0,62,0.00,,,0.00,open2300-1.11,2013-05-26 20:40:00,
2013-05-26 22:50:00,50.2,38.0,29.96,North,0,0.0,0.0,63,0.00,,,0.00,open2300-1.11,2013-05-26 20:50:00,
2013-05-26 23:00:00,49.8,38.5,29.96,North,0,0.0,0.0,65,0.00,,,0.00,open2300-1.11,2013-05-26 21:00:00,
2013-05-26 23:05:00,49.8,38.5,29.96,North,0,0.0,0.0,65,0.00,,,0.00,open2300-1.11,2013-05-26 21:05:00,
2013-05-26 23:10:00,49.6,38.3,29.96,North,0,0.0,0.0,65,0.00,,,0.00,open2300-1.11,2013-05-26 21:10:00,
2013-05-26 23:20:00,49.3,38.3,29.96,North,0,0.0,0.0,66,0.00,,,0.00,open2300-1.11,2013-05-26 21:20:00,
2013-05-26 23:25:00,49.3,38.8,29.95,North,0,0.0,0.0,67,0.00,,,0.00,open2300-1.11,2013-05-26 21:25:00,
2013-05-26 23:30:00,49.1,38.6,29.96,North,0,0.0,0.0,67,0.00,,,0.00,open2300-1.11,2013-05-26 21:30:00,
2013-05-26 23:35:00,48.9,38.8,29.95,North,0,0.0,0.0,68,0.00,,,0.00,open2300-1.11,2013-05-26 21:35:00,
2013-05-26 23:40:00,48.7,38.2,29.95,North,0,0.0,0.0,67,0.00,,,0.00,open2300-1.11,2013-05-26 21:40:00,
2013-05-26 23:51:00,48.4,38.2,29.95,North,0,0.0,0.0,68,0.00,,,0.00,open2300-1.11,2013-05-26 21:51:00,